GW4544 Weather Reports


time (UTC)temp
C
wind
direction
speed
KPH
gust
KPH
rain 1hr
cm
rain 24hr
cm
rain mn
cm
humidity
%
barometer
mb
20260507065531 13 21 0.0 0.0 0.00 0.00 0.00 81 1016.1
20260507065029 13 21 0.0 0.0 0.00 0.00 0.00 80 1016.0
20260507064527 13 20 0.0 0.0 0.00 0.00 0.00 80 1016.0
20260507064025 13 20 0.0 0.0 0.00 0.00 0.00 80 1015.9
20260507063522 13 19 0.0 0.0 0.00 0.00 0.00 80 1016.0
20260507063019 13 19 0.0 0.0 0.00 0.00 0.00 79 1016.0
20260507062516 14 19 0.0 0.0 0.00 0.00 0.00 79 1016.0
20260507062014 14 20 0.0 0.0 0.00 0.00 0.00 78 1016.1
20260507061511 14 20 0.0 0.0 0.00 0.00 0.00 77 1015.9
20260507061009 15 20 0.0 0.0 0.00 0.00 0.00 77 1016.0
20260507060506 15 20 0.0 0.0 0.00 0.00 0.00 76 1016.1
20260507060003 15 20 0.0 0.0 0.00 0.00 0.00 76 1016.0
20260507055458 15 19 0.0 0.0 0.00 0.00 0.00 75 1015.9
20260507054954 15 31 0.0 0.0 0.00 0.00 0.00 74 1016.1
20260507054450 15 37 0.0 0.0 0.00 0.00 0.00 75 1016.1
20260507053948 15 32 0.0 0.0 0.00 0.00 0.00 75 1015.9
20260507053446 15 25 0.0 0.0 0.00 0.00 0.00 75 1015.8
20260507052944 15 18 0.0 0.0 0.00 0.00 0.00 75 1015.9
20260507052441 15 18 0.0 0.0 0.00 0.00 0.00 74 1016.0
20260507051938 15 15 0.0 0.0 0.00 0.00 0.00 75 1016.0
20260507051435 15 20 0.0 0.0 0.00 0.00 0.00 74 1016.0
20260507050932 15 14 0.0 0.0 0.00 0.00 0.00 74 1016.1
20260507050429 15 18 0.0 0.0 0.00 0.00 0.00 73 1015.8
20260507045926 16 16 0.0 0.0 0.00 0.00 0.00 72 1015.8
20260507045422 16 14 0.0 0.0 0.00 0.00 0.00 72 1015.8
20260507044919 16 22 0.0 0.0 0.00 0.00 0.00 72 1015.8
20260507044416 16 22 0.0 0.0 0.00 0.00 0.00 71 1015.7
20260507043912 16 22 0.0 0.0 0.00 0.00 0.00 70 1015.9
20260507043408 16 16 0.0 0.0 0.00 0.00 0.00 70 1015.9
20260507042905 16 16 0.0 0.0 0.00 0.00 0.00 69 1015.6
20260507042401 16 16 0.0 0.0 0.00 0.00 0.00 69 1015.7
20260507041852 16 16 0.0 0.0 0.00 0.00 0.00 69 1015.8
20260507041349 16 16 0.0 0.0 0.00 0.00 0.00 68 1015.7
20260507040847 17 19 0.0 0.0 0.00 0.00 0.00 68 1015.6
20260507040342 17 19 0.0 0.0 0.00 0.00 0.00 67 1015.7
20260507035838 17 12 0.0 0.0 0.00 0.00 0.00 66 1015.4
20260507035334 17 25 0.0 0.0 0.00 0.00 0.00 66 1015.1
20260507034832 17 15 0.0 0.0 0.00 0.00 0.00 65 1015.2
20260507034329 17 6 0.0 0.0 0.00 0.00 0.00 65 1015.2
20260507033826 17 14 0.0 0.0 0.00 0.00 0.00 65 1015.2
20260507033324 17 19 0.0 0.0 0.00 0.00 0.00 64 1014.9
20260507032821 18 13 0.0 0.0 0.00 0.00 0.00 64 1014.9
20260507032317 18 14 0.0 0.0 0.00 0.00 0.00 63 1014.9
20260507031814 18 29 0.0 0.0 0.00 0.00 0.00 63 1015.1
20260507031311 18 18 0.0 0.0 0.00 0.00 0.00 62 1015.0
20260507030807 18 29 0.0 0.0 0.00 0.00 0.00 61 1014.8
20260507030305 18 20 0.0 0.0 0.00 0.00 0.00 60 1014.8
20260507025801 19 19 0.0 0.0 0.00 0.00 0.00 60 1014.8
20260507025259 19 15 0.0 0.0 0.00 0.00 0.00 59 1014.4
20260507024757 20 39 0.0 0.0 0.00 0.00 0.00 59 1014.5
20260507024254 20 24 0.0 0.0 0.00 0.00 0.00 58 1014.4
20260507023749 20 43 0.0 0.0 0.00 0.00 0.00 57 1014.4
20260507023246 20 27 0.0 0.0 0.00 0.00 0.00 57 1014.3
20260507022744 20 12 1.6 1.6 0.00 0.00 0.00 56 1014.4
20260507022240 21 19 0.0 1.6 0.00 0.00 0.00 54 1014.3
20260507021736 21 23 0.0 0.0 0.00 0.00 0.00 53 1014.2
20260507021231 21 24 0.0 0.0 0.00 0.00 0.00 52 1014.2
20260507020730 21 18 0.0 1.6 0.00 0.00 0.00 51 1014.0
20260507020226 22 24 0.0 0.0 0.00 0.00 0.00 50 1014.0
20260507015724 22 308 0.0 1.6 0.00 0.00 0.00 50 1013.9
20260507015221 22 17 0.0 1.6 0.00 0.00 0.00 49 1013.8
20260507014717 22 31 0.0 0.0 0.00 0.00 0.00 48 1013.8
20260507014214 22 20 0.0 0.0 0.00 0.00 0.00 47 1013.8
20260507013711 22 19 1.6 1.6 0.00 0.00 0.00 47 1013.6
20260507013208 23 333 1.6 1.6 0.00 0.00 0.00 46 1013.7
20260507012705 23 351 1.6 1.6 0.00 0.00 0.00 46 1013.6
20260507012201 23 5 0.0 1.6 0.00 0.00 0.00 46 1013.8
20260507011659 23 353 1.6 3.2 0.00 0.00 0.00 46 1013.5
20260507011155 23 13 3.2 4.8 0.00 0.00 0.00 45 1013.6
20260507010654 23 63 1.6 3.2 0.00 0.00 0.00 45 1013.5
20260507010150 23 17 1.6 3.2 0.00 0.00 0.00 45 1013.6
20260507005648 23 34 0.0 0.0 0.00 0.00 0.00 45 1013.6
20260507005144 23 359 1.6 1.6 0.00 0.00 0.00 46 1013.7
20260507004641 24 348 0.0 1.6 0.00 0.00 0.00 45 1013.6
20260507004139 24 28 0.0 1.6 0.00 0.00 0.00 44 1013.5
20260507003635 24 357 3.2 3.2 0.00 0.00 0.00 44 1013.4
20260507003130 24 12 1.6 1.6 0.00 0.00 0.00 45 1013.3
20260507002627 25 58 1.6 1.6 0.00 0.00 0.00 45 1013.4
20260507002122 25 355 1.6 3.2 0.00 0.00 0.00 44 1013.4
20260507001619 25 28 0.0 1.6 0.00 0.00 0.00 45 1013.2
20260507001117 25 355 1.6 1.6 0.00 0.00 0.00 44 1013.5
20260507000613 25 324 1.6 1.6 0.00 0.00 0.00 44 1013.2
20260507000108 26 13 1.6 1.6 0.00 0.00 0.00 42 1013.4
20260506235606 26 11 0.0 1.6 0.00 0.00 0.00 43 1013.2
20260506235106 26 79 1.6 1.6 0.00 0.00 0.00 43 1013.4
20260506234604 26 16 1.6 1.6 0.00 0.00 0.00 42 1013.2
20260506234101 26 9 1.6 3.2 0.00 0.00 0.00 42 1013.2
20260506233558 26 258 3.2 4.8 0.00 0.00 0.00 43 1013.3
20260506233054 26 7 0.0 1.6 0.00 0.00 0.00 42 1013.4
20260506232550 26 37 0.0 1.6 0.00 0.00 0.00 43 1013.4
20260506232046 26 7 0.0 1.6 0.00 0.00 0.00 42 1013.3
20260506231544 26 72 0.0 1.6 0.00 0.00 0.00 42 1013.4
20260506231042 26 336 1.6 3.2 0.00 0.00 0.00 42 1013.4
20260506230538 26 13 0.0 0.0 0.00 0.00 0.00 41 1013.4
20260506230035 26 16 0.0 0.0 0.00 0.00 0.00 41 1013.4
20260506225532 26 20 1.6 1.6 0.00 0.00 0.00 41 1013.3
20260506225028 26 14 0.0 1.6 0.00 0.00 0.00 41 1013.2
20260506224525 26 22 1.6 1.6 0.00 0.00 0.00 40 1013.5
20260506224022 27 32 1.6 3.2 0.00 0.00 0.00 39 1013.6
20260506223518 27 14 1.6 3.2 0.00 0.00 0.00 38 1013.7
20260506223014 27 32 1.6 3.2 0.00 0.00 0.00 37 1013.5
20260506222511 27 8 0.0 1.6 0.00 0.00 0.00 38 1013.7
20260506222008 27 349 1.6 4.8 0.00 0.00 0.00 37 1013.6
20260506221505 27 6 1.6 1.6 0.00 0.00 0.00 37 1013.8
20260506221003 27 6 0.0 0.0 0.00 0.00 0.00 38 1013.8
20260506220458 27 15 0.0 0.0 0.00 0.00 0.00 38 1013.8
20260506215955 27 9 3.2 3.2 0.00 0.00 0.00 37 1014.1
20260506215451 26 3 0.0 1.6 0.00 0.00 0.00 37 1014.1
20260506214947 27 274 1.6 3.2 0.00 0.00 0.00 38 1013.9
20260506214444 27 357 0.0 1.6 0.00 0.00 0.00 38 1014.0
20260506213942 27 38 1.6 3.2 0.00 0.00 0.00 38 1014.1
20260506213439 26 325 3.2 3.2 0.00 0.00 0.00 39 1014.2
20260506212936 26 320 3.2 3.2 0.00 0.00 0.00 38 1014.4
20260506212432 26 21 1.6 3.2 0.00 0.00 0.00 38 1014.4
20260506211932 26 17 1.6 1.6 0.00 0.00 0.00 39 1014.4
20260506211429 26 25 1.6 1.6 0.00 0.00 0.00 39 1014.4
20260506210926 26 28 0.0 0.0 0.00 0.00 0.00 39 1014.6
20260506210422 26 10 1.6 1.6 0.00 0.00 0.00 40 1014.4
20260506205920 25 45 3.2 4.8 0.00 0.00 0.00 40 1014.6
20260506205415 26 342 3.2 3.2 0.00 0.00 0.00 40 1014.9
20260506204912 25 19 1.6 1.6 0.00 0.00 0.00 41 1014.7
20260506204410 25 304 1.6 1.6 0.00 0.00 0.00 40 1014.8
20260506203907 25 8 0.0 1.6 0.00 0.00 0.00 41 1014.7
20260506203404 25 359 1.6 3.2 0.00 0.00 0.00 41 1014.8
20260506202901 25 359 4.8 4.8 0.00 0.00 0.00 42 1015.3
20260506202358 25 13 1.6 1.6 0.00 0.00 0.00 42 1015.1
20260506201854 25 340 1.6 1.6 0.00 0.00 0.00 42 1015.2
20260506201352 25 339 1.6 1.6 0.00 0.00 0.00 42 1015.1
20260506200848 25 17 0.0 0.0 0.00 0.00 0.00 41 1015.3
20260506200345 24 33 1.6 3.2 0.00 0.00 0.00 42 1015.3
20260506195841 25 346 1.6 3.2 0.00 0.00 0.00 40 1015.2
20260506195338 25 7 0.0 1.6 0.00 0.00 0.00 40 1015.4
20260506194835 25 15 0.0 0.0 0.00 0.00 0.00 41 1015.4
20260506194332 25 35 0.0 0.0 0.00 0.00 0.00 40 1015.6
20260506193829 24 27 0.0 1.6 0.00 0.00 0.00 41 1015.7
20260506193326 24 29 1.6 1.6 0.00 0.00 0.00 41 1015.8
20260506192822 23 359 0.0 3.2 0.00 0.00 0.00 43 1015.8
20260506192319 23 38 1.6 1.6 0.00 0.00 0.00 43 1015.7
20260506191816 25 49 1.6 1.6 0.00 0.00 0.00 41 1015.7
20260506191312 23 38 1.6 1.6 0.00 0.00 0.00 42 1015.9
20260506190809 23 11 1.6 3.2 0.00 0.00 0.00 42 1016.1
20260506190306 23 358 3.2 3.2 0.00 0.00 0.00 44 1015.9
20260506185803 23 49 0.0 1.6 0.00 0.00 0.00 42 1016.1
20260506185259 23 46 0.0 0.0 0.00 0.00 0.00 42 1016.3
20260506184757 23 38 0.0 0.0 0.00 0.00 0.00 44 1016.1
20260506184254 22 23 0.0 1.6 0.00 0.00 0.00 45 1016.4
20260506183751 22 35 0.0 1.6 0.00 0.00 0.00 45 1016.4
20260506183251 23 33 0.0 1.6 0.00 0.00 0.00 43 1016.3
20260506182749 22 23 3.2 3.2 0.00 0.00 0.00 45 1016.4
20260506182246 22 20 1.6 1.6 0.00 0.00 0.00 44 1016.5
20260506181744 21 9 0.0 0.0 0.00 0.00 0.00 45 1016.6
20260506181241 22 25 1.6 1.6 0.00 0.00 0.00 46 1016.7
20260506180738 22 31 0.0 0.0 0.00 0.00 0.00 44 1016.6
20260506180234 21 20 1.6 1.6 0.00 0.00 0.00 47 1016.6
20260506175730 21 18 1.6 3.2 0.00 0.00 0.00 47 1016.6
20260506175227 21 193 1.6 3.2 0.00 0.00 0.00 47 1016.7
20260506174725 21 96 0.0 1.6 0.00 0.00 0.00 47 1016.6
20260506174221 21 84 3.2 4.8 0.00 0.00 0.00 48 1016.6
20260506173719 21 80 0.0 0.0 0.00 0.00 0.00 47 1016.5
20260506173216 21 77 1.6 3.2 0.00 0.00 0.00 48 1016.5
20260506172713 20 76 1.6 1.6 0.00 0.00 0.00 48 1016.6
20260506172209 21 77 1.6 1.6 0.00 0.00 0.00 49 1016.5
20260506171707 20 84 0.0 1.6 0.00 0.00 0.00 50 1016.6
20260506171204 20 79 0.0 1.6 0.00 0.00 0.00 48 1016.6
20260506170702 19 75 1.6 1.6 0.00 0.00 0.00 51 1016.7
20260506170158 19 77 1.6 3.2 0.00 0.00 0.00 51 1016.6
20260506165657 20 78 1.6 1.6 0.00 0.00 0.00 49 1016.7
20260506165153 20 80 0.0 0.0 0.00 0.00 0.00 50 1016.7
20260506164650 20 74 1.6 3.2 0.00 0.00 0.00 49 1016.8
20260506164148 19 81 0.0 1.6 0.00 0.00 0.00 51 1016.9
20260506163644 17 81 0.0 0.0 0.00 0.00 0.00 54 1016.7
20260506163139 17 80 1.6 1.6 0.00 0.00 0.00 54 1016.8
20260506162635 17 79 0.0 1.6 0.00 0.00 0.00 52 1017.0
20260506162133 17 81 1.6 1.6 0.00 0.00 0.00 53 1016.8
20260506161630 17 80 0.0 1.6 0.00 0.00 0.00 55 1016.7
20260506161127 17 81 0.0 1.6 0.00 0.00 0.00 54 1016.7
20260506160624 17 81 0.0 0.0 0.00 0.00 0.00 55 1017.0
20260506160121 17 81 1.6 1.6 0.00 0.00 0.00 56 1016.9
20260506155620 17 83 0.0 1.6 0.00 0.00 0.00 57 1016.9
20260506155116 16 83 0.0 0.0 0.00 0.00 0.00 59 1016.8
20260506153218 16 82 0.0 0.0 0.00 0.00 0.00 59 1016.7
20260506152715 16 82 1.6 1.6 0.00 0.00 0.00 59 1016.8
20260506152212 16 86 1.6 1.6 0.00 0.00 0.00 61 1016.9
20260506151712 16 81 1.6 1.6 0.00 0.00 0.00 63 1016.8
20260506151208 16 84 1.6 1.6 0.00 0.00 0.00 64 1016.8
20260506150704 15 83 0.0 0.0 0.00 0.00 0.00 65 1016.9
20260506150201 15 79 0.0 0.0 0.00 0.00 0.00 67 1016.8
20260506145658 14 109 1.6 3.2 0.00 0.00 0.00 68 1017.1
20260506145154 14 84 0.0 1.6 0.00 0.00 0.00 69 1017.0
20260506144652 13 86 0.0 0.0 0.00 0.00 0.00 70 1017.0
20260506144149 13 87 0.0 0.0 0.00 0.00 0.00 72 1017.0
20260506143646 12 87 0.0 0.0 0.00 0.00 0.00 73 1016.7
20260506143144 12 85 0.0 0.0 0.00 0.00 0.00 75 1016.8
20260506142643 11 85 0.0 0.0 0.00 0.00 0.00 78 1016.9
20260506142140 11 94 0.0 0.0 0.00 0.00 0.00 80 1016.7
20260506141638 10 98 0.0 0.0 0.00 0.00 0.00 80 1016.6
20260506141136 10 85 0.0 0.0 0.00 0.00 0.00 82 1016.8
20260506140633 10 86 0.0 0.0 0.00 0.00 0.00 83 1016.7
20260506140130 9 86 0.0 0.0 0.00 0.00 0.00 84 1016.7
20260506135627 8 88 0.0 0.0 0.00 0.00 0.00 85 1016.7
20260506135123 8 85 0.0 0.0 0.00 0.00 0.00 86 1016.7
20260506134620 8 90 0.0 0.0 0.00 0.00 0.00 86 1016.5
20260506134115 8 88 0.0 0.0 0.00 0.00 0.00 87 1016.4
20260506133613 8 89 0.0 0.0 0.00 0.00 0.00 87 1016.3
20260506133110 8 88 0.0 0.0 0.00 0.00 0.00 87 1016.5
20260506132607 8 88 0.0 0.0 0.00 0.00 0.00 87 1016.3
20260506132104 8 90 0.0 0.0 0.00 0.00 0.00 88 1016.2
20260506131601 7 88 0.0 0.0 0.00 0.00 0.00 88 1016.2
20260506131057 7 88 0.0 0.0 0.00 0.00 0.00 88 1016.1
20260506130555 7 88 0.0 0.0 0.00 0.00 0.00 88 1016.2
20260506130052 7 89 0.0 0.0 0.00 0.00 0.00 88 1016.2
20260506125550 7 88 0.0 0.0 0.00 0.00 0.00 88 1016.1
20260506125048 8 89 0.0 0.0 0.00 0.00 0.00 87 1016.3
20260506124545 8 88 0.0 0.0 0.00 0.00 0.00 87 1016.1
20260506124043 8 88 0.0 0.0 0.00 0.00 0.00 86 1016.1
20260506123540 7 89 0.0 0.0 0.00 0.00 0.00 88 1016.1
20260506123039 7 89 0.0 0.0 0.00 0.00 0.00 87 1015.9
20260506122535 7 88 0.0 0.0 0.00 0.00 0.00 87 1016.0
20260506122033 7 88 0.0 0.0 0.00 0.00 0.00 87 1015.8
20260506121531 8 88 0.0 0.0 0.00 0.00 0.00 86 1015.7
20260506121026 8 92 0.0 0.0 0.00 0.00 0.00 86 1015.8
20260506120525 8 89 0.0 0.0 0.00 0.00 0.00 86 1016.0
20260506120022 8 88 0.0 0.0 0.00 0.00 0.00 86 1015.8
20260506115520 8 90 0.0 0.0 0.00 0.00 0.00 86 1016.1
20260506115018 8 91 0.0 0.0 0.00 0.00 0.00 85 1015.9
20260506114515 8 90 0.0 0.0 0.00 0.00 0.00 86 1015.9
20260506114014 8 90 0.0 0.0 0.00 0.00 0.00 86 1016.0
20260506113511 8 90 0.0 0.0 0.00 0.00 0.00 86 1016.0
20260506113008 8 90 0.0 0.0 0.00 0.00 0.00 86 1016.0
20260506112504 8 89 0.0 0.0 0.00 0.00 0.00 86 1015.9
20260506112002 8 90 0.0 0.0 0.00 0.00 0.00 86 1015.8
20260506111500 8 89 0.0 0.0 0.00 0.00 0.00 85 1016.0
20260506110956 8 93 0.0 0.0 0.00 0.00 0.00 85 1016.0
20260506110454 8 90 0.0 0.0 0.00 0.00 0.00 85 1015.8
20260506105951 8 91 0.0 0.0 0.00 0.00 0.00 86 1015.8
20260506105447 8 88 0.0 0.0 0.00 0.00 0.00 86 1015.8
20260506104945 8 86 0.0 0.0 0.00 0.00 0.00 86 1015.8
20260506104443 8 86 0.0 0.0 0.00 0.00 0.00 86 1015.7
20260506103941 8 86 0.0 0.0 0.00 0.00 0.00 86 1015.8
20260506103437 8 87 0.0 0.0 0.00 0.00 0.00 86 1015.9
20260506102934 8 87 0.0 0.0 0.00 0.00 0.00 85 1015.9
20260506102433 8 87 0.0 0.0 0.00 0.00 0.00 84 1015.8
20260506101929 9 87 0.0 0.0 0.00 0.00 0.00 83 1015.9
20260506101426 9 86 0.0 0.0 0.00 0.00 0.00 83 1015.9
20260506100923 9 87 0.0 0.0 0.00 0.00 0.00 83 1015.7
20260506100421 9 87 0.0 0.0 0.00 0.00 0.00 83 1015.7
20260506095919 10 86 0.0 0.0 0.00 0.00 0.00 82 1015.8
20260506095417 9 86 0.0 0.0 0.00 0.00 0.00 84 1015.8
20260506094913 10 86 0.0 0.0 0.00 0.00 0.00 84 1015.8
20260506094412 10 87 0.0 0.0 0.00 0.00 0.00 84 1015.9
20260506093909 10 87 0.0 0.0 0.00 0.00 0.00 83 1015.8
20260506093407 10 87 0.0 0.0 0.00 0.00 0.00 82 1016.0
20260506092904 10 86 0.0 0.0 0.00 0.00 0.00 82 1015.9
20260506092402 10 86 0.0 0.0 0.00 0.00 0.00 82 1015.9
20260506091858 10 87 0.0 0.0 0.00 0.00 0.00 82 1015.9
20260506091357 10 73 0.0 0.0 0.00 0.00 0.00 81 1015.9
20260506090853 10 74 0.0 0.0 0.00 0.00 0.00 81 1015.9
20260506090351 10 67 0.0 0.0 0.00 0.00 0.00 81 1015.9
20260506085848 10 70 0.0 0.0 0.00 0.00 0.00 81 1015.9
20260506085344 10 49 0.0 0.0 0.00 0.00 0.00 80 1015.9
20260506084841 10 31 0.0 1.6 0.00 0.00 0.00 80 1015.9
20260506084338 10 62 0.0 0.0 0.00 0.00 0.00 80 1016.0
20260506083834 10 41 1.6 1.6 0.00 0.00 0.00 79 1015.9
20260506083331 10 70 0.0 1.6 0.00 0.00 0.00 79 1016.1
20260506082829 10 68 0.0 0.0 0.00 0.00 0.00 78 1016.0
20260506082325 11 43 1.6 1.6 0.00 0.00 0.00 78 1016.1
20260506081821 10 85 0.0 1.6 0.00 0.00 0.00 77 1016.0
20260506081320 10 43 0.0 0.0 0.00 0.00 0.00 76 1016.0
20260506080817 10 44 0.0 0.0 0.00 0.00 0.00 76 1016.1
20260506080313 10 56 1.6 1.6 0.00 0.00 0.00 76 1016.3
20260506073258 10 35 0.0 0.0 0.00 0.00 0.00 76 1016.3
20260506072754 10 44 0.0 0.0 0.00 0.00 0.00 76 1016.4
20260506072252 10 41 0.0 0.0 0.00 0.00 0.00 76 1016.3
20260506071749 10 36 0.0 0.0 0.00 0.00 0.00 76 1016.1
20260506071247 10 33 0.0 0.0 0.00 0.00 0.00 76 1016.2
20260506070744 10 33 0.0 0.0 0.00 0.00 0.00 75 1016.2
20260506070241 11 32 0.0 0.0 0.00 0.00 0.00 75 1016.2